EW0608 Weather Reports


time (UTC)temp
C
wind
direction
speed
KPH
gust
KPH
rain 1hr
cm
rain 24hr
cm
rain mn
cm
humidity
%
barometer
mb
20260904151346 27 230 0.0 0.0 0.00 0.00 0.00 75 1014.9
20260904150900 26 184 0.0 0.0 0.00 0.00 0.00 83 1014.9
20260904150412 26 184 0.0 0.0 0.00 0.00 0.00 80 1014.8
20260904150042 26 185 0.0 0.0 0.00 0.00 0.00 79 1013.6
20260904145841 26 209 0.0 0.0 0.00 0.00 0.00 79 1014.8
20260904145353 25 276 0.0 0.0 0.00 0.00 0.00 84 1014.9
20260904144846 25 75 0.0 0.0 0.00 0.00 0.00 90 1015.0
20260904144537 25 234 0.0 0.0 0.00 0.00 0.00 91 1013.7
20260904144437 25 234 0.0 0.0 0.00 0.00 0.00 91 1015.0
20260904143847 24 234 0.0 0.0 0.00 0.00 0.00 93 1015.0
20260904143028 23 234 0.0 0.0 0.00 0.00 0.00 94 1013.9
20260904141524 23 234 0.0 0.0 0.00 0.00 0.00 95 1014.0
20260904140022 22 234 0.0 0.0 0.00 0.00 0.00 95 1014.0
20260904134518 22 234 0.0 0.0 0.00 0.00 0.00 95 1013.9
20260904133015 20 234 0.0 0.0 0.00 0.00 0.00 95 1014.2
20260904131513 20 234 0.0 0.0 0.00 0.00 0.00 95 1014.2
20260904130016 20 234 0.0 0.0 0.00 0.00 0.00 95 1014.3
20260904124518 20 234 0.0 0.0 0.00 0.00 0.00 95 1014.5
20260904123012 19 234 0.0 0.0 0.00 0.00 0.00 95 1014.3
20260904121512 19 234 0.0 0.0 0.00 0.00 0.00 95 1014.4
20260904120012 19 234 0.0 0.0 0.00 0.00 0.00 95 1014.3
20260904114510 19 234 0.0 0.0 0.00 0.00 0.00 95 1013.9
20260904113011 19 234 0.0 0.0 0.00 0.00 0.00 95 1013.6
20260904111510 19 234 0.0 0.0 0.00 0.00 0.00 95 1013.7
20260904110009 19 234 0.0 0.0 0.00 0.00 0.00 95 1013.8
20260904104509 19 234 0.0 0.0 0.00 0.00 0.00 95 1014.0
20260904103009 19 234 0.0 0.0 0.00 0.00 0.00 95 1013.7
20260904101511 19 234 0.0 0.0 0.00 0.00 0.00 95 1013.7
20260904100007 19 234 0.0 0.0 0.00 0.00 0.00 95 1013.8
20260904094511 19 234 0.0 0.0 0.00 0.00 0.00 95 1013.6
20260904093015 19 234 0.0 0.0 0.00 0.00 0.00 95 1013.8
20260904091506 19 234 0.0 0.0 0.00 0.00 0.00 95 1013.6
20260904090005 19 234 0.0 0.0 0.00 0.00 0.00 95 1013.6
20260904084505 19 234 0.0 0.0 0.00 0.00 0.00 95 1012.6
20260904083005 19 234 0.0 0.0 0.00 0.00 0.00 95 1012.4
20260904081507 18 234 0.0 0.0 0.00 0.00 0.00 95 1012.5
20260904080002 19 234 0.0 0.0 0.00 0.00 0.00 95 1012.9
20260904074500 19 234 0.0 0.0 0.00 0.00 0.00 95 1013.0
20260904073101 19 234 0.0 0.0 0.00 0.00 0.00 95 1012.9
20260904071601 19 234 0.0 0.0 0.00 0.00 0.00 95 1012.8
20260904070059 19 234 0.0 0.0 0.00 0.00 0.00 95 1012.6
20260904064557 19 234 0.0 0.0 0.00 0.00 0.00 95 1012.6
20260904063057 19 234 0.0 0.0 0.00 0.00 0.00 95 1012.6
20260904061601 19 234 0.0 0.0 0.00 0.00 0.00 95 1012.6
20260904060907 20 234 0.0 0.0 0.00 0.00 0.00 95 1013.9
20260904060341 20 234 0.0 0.0 0.00 0.00 0.00 95 1014.0
20260904060051 20 234 0.0 0.0 0.00 0.00 0.00 95 1012.8
20260904055850 20 234 0.0 0.0 0.00 0.00 0.00 95 1014.2
20260904055343 20 234 0.0 0.0 0.00 0.00 0.00 95 1014.1
20260904054855 20 234 0.0 0.0 0.00 0.00 0.00 95 1014.2
20260904054551 20 234 0.0 0.0 0.00 0.00 0.00 95 1013.0
20260904054348 20 234 0.0 0.0 0.00 0.00 0.00 95 1014.3
20260904053902 20 234 0.0 0.0 0.00 0.00 0.00 95 1014.4
20260904053353 20 234 0.0 0.0 0.00 0.00 0.00 95 1014.6
20260904053059 20 234 0.0 0.0 0.00 0.00 0.00 95 1013.4
20260904052844 20 234 0.0 0.0 0.00 0.00 0.00 95 1014.8
20260904052336 20 234 0.0 0.0 0.00 0.00 0.00 95 1014.8
20260904051848 20 234 0.0 0.0 0.00 0.00 0.00 95 1014.7
20260904051546 20 234 0.0 0.0 0.00 0.00 0.00 95 1013.6
20260904051341 20 234 0.0 0.0 0.00 0.00 0.00 95 1014.9
20260904050934 20 234 0.0 0.0 0.00 0.00 0.00 95 1015.2
20260904050343 20 234 0.0 0.0 0.00 0.00 0.00 95 1015.3
20260904050057 20 234 0.0 0.0 0.00 0.00 0.00 95 1014.1
20260904045851 20 234 0.0 0.0 0.00 0.00 0.00 95 1015.3
20260904045346 20 234 0.0 0.0 0.00 0.00 0.00 95 1015.5
20260904044837 20 234 0.0 0.0 0.00 0.00 0.00 95 1015.5
20260904044553 20 234 0.0 0.0 0.00 0.00 0.00 95 1014.3
20260904044350 20 234 0.0 0.0 0.00 0.00 0.00 95 1015.7
20260904043842 20 234 0.0 0.0 0.00 0.00 0.00 95 1015.8
20260904043415 20 234 0.0 0.0 0.00 0.00 0.00 95 1015.9
20260904043027 20 234 0.0 0.0 0.00 0.00 0.00 95 1014.6
20260904042926 20 234 0.0 0.0 0.00 0.00 0.00 95 1015.9
20260904042413 20 234 0.0 0.0 0.00 0.00 0.00 95 1015.9
20260904041843 20 234 0.0 0.0 0.00 0.00 0.00 95 1015.9
20260904041543 20 234 0.0 0.0 0.00 0.00 0.00 95 1014.7
20260904040910 20 234 0.0 0.0 0.00 0.00 0.00 95 1016.3
20260904040343 20 234 0.0 0.0 0.00 0.00 0.00 95 1016.5
20260904040053 20 234 0.0 0.0 0.00 0.00 0.00 95 1015.1
20260904035853 20 234 0.0 0.0 0.00 0.00 0.00 95 1016.4
20260904035346 20 234 0.0 0.0 0.00 0.00 0.00 95 1016.5
20260904034839 20 234 0.0 0.0 0.00 0.00 0.00 95 1016.6
20260904034508 20 234 0.0 0.0 0.00 0.00 0.00 95 1015.3
20260904034408 20 234 0.0 0.0 0.00 0.00 0.00 95 1016.5
20260904033845 20 234 0.0 6.4 0.00 0.00 0.00 95 1016.4
20260904033337 20 177 0.0 6.4 0.00 0.00 0.00 95 1016.5
20260904033103 20 150 0.0 6.4 0.00 0.00 0.00 95 1015.7
20260904032851 20 86 0.0 0.0 0.00 0.00 0.00 95 1017.0
20260904032343 20 156 526.3 526.3 0.00 0.00 0.00 94 1016.6
20260904031836 20 100 0.0 0.0 0.00 0.00 0.00 94 1017.5
20260904031510 20 100 0.0 0.0 0.00 0.00 0.00 94 1015.7
20260904031348 20 100 0.0 0.0 0.00 0.00 0.00 95 1016.9
20260904030841 20 100 0.0 0.0 0.00 0.00 0.00 94 1017.4
20260904030354 20 238 0.0 0.0 0.00 0.00 0.00 94 1017.5
20260904030043 20 167 0.0 0.0 0.00 0.00 0.00 94 1016.2
20260904025842 20 167 0.0 0.0 0.00 0.00 0.00 94 1017.5
20260904025335 20 92 0.0 0.0 0.00 0.00 0.00 94 1018.1
20260904024907 20 30 0.0 0.0 0.00 0.00 0.00 94 1018.6
20260904024540 20 32 0.0 0.0 0.00 0.00 0.00 94 1017.3
20260904024340 20 92 0.0 0.0 0.00 0.00 0.00 94 1018.5
20260904023852 21 277 0.0 1.6 0.00 0.00 0.00 94 1018.7
20260904023344 21 18 0.0 0.0 0.00 0.00 0.00 94 1017.7
20260904023057 21 169 0.0 3.2 0.00 0.00 0.00 93 1016.2
20260904022857 21 169 0.0 3.2 0.00 0.00 0.00 93 1017.3
20260904022408 21 257 1.6 3.2 0.00 0.00 0.00 92 1017.8
20260904021900 21 257 1.6 20.9 0.00 0.00 0.00 91 1017.1
20260904021551 21 163 0.0 20.9 0.00 0.00 0.00 91 1015.4
20260904021351 22 163 3.2 20.9 0.00 0.00 0.00 89 1016.8
20260904020904 23 106 4.8 14.5 0.00 0.00 0.00 86 1017.1
20260904020357 24 338 4.8 8.0 0.00 0.00 0.00 84 1017.6
20260904020059 24 348 0.0 1.6 0.00 0.00 0.00 85 1015.6
20260904015847 25 348 0.0 1.6 0.00 0.00 0.00 86 1016.6
20260904015340 25 134 0.0 1.6 0.00 0.00 0.00 88 1016.0
20260904014852 25 134 0.0 6.4 0.00 0.00 0.00 90 1015.9
20260904014506 25 355 0.0 6.4 0.00 0.00 0.00 91 1014.7
20260904014405 25 355 0.0 6.4 0.00 0.00 0.00 91 1016.0
20260904013836 25 136 0.0 4.8 0.00 0.00 0.00 92 1015.8
20260904013349 25 136 0.0 4.8 0.00 0.00 0.00 93 1015.8
20260904013046 25 136 0.0 4.8 0.00 0.00 0.00 93 1014.4
20260904012843 25 80 1.6 4.8 0.00 0.00 0.00 93 1015.8
20260904012414 25 68 0.0 4.8 0.00 0.00 0.00 94 1015.4
20260904011846 25 68 1.6 4.8 0.00 0.00 0.00 94 1015.0
20260904011607 25 28 0.0 3.2 0.00 0.00 0.00 94 1013.6
20260904011400 25 28 1.6 3.2 0.00 0.00 0.00 94 1015.0
20260904010852 25 238 0.0 0.0 0.00 0.00 0.00 94 1014.6
20260904010408 25 238 0.0 0.0 0.00 0.00 0.00 94 1014.4
20260904010100 25 238 0.0 0.0 0.00 0.00 0.00 94 1012.8
20260904005856 25 238 0.0 0.0 0.00 0.00 0.00 94 1014.3
20260904005408 25 238 0.0 0.0 0.00 0.00 0.00 94 1014.4
20260904004840 25 238 0.0 0.0 0.00 0.00 0.00 94 1014.3
20260904004552 25 238 0.0 0.0 0.00 0.00 0.00 93 1012.9
20260904004352 25 238 0.0 0.0 0.00 0.00 0.00 93 1014.3
20260904003845 25 238 0.0 0.0 0.00 0.00 0.00 93 1014.4
20260904003357 25 238 0.0 0.0 0.00 0.00 0.00 93 1014.4
20260904003059 25 238 0.0 0.0 0.00 0.00 0.00 93 1013.0
20260904002850 25 238 0.0 0.0 0.00 0.00 0.00 93 1014.4
20260904002403 25 238 0.0 0.0 0.00 0.00 0.00 93 1014.2
20260904001835 25 238 0.0 0.0 0.00 0.00 0.00 93 1014.2
20260904001548 25 238 0.0 0.0 0.00 0.00 0.00 93 1012.6
20260904001348 25 238 0.0 0.0 0.00 0.00 0.00 93 1014.0
20260904000840 26 238 0.0 0.0 0.00 0.00 0.00 93 1014.1
20260904000355 26 238 0.0 0.0 0.00 0.00 0.00 93 1014.4
20260904000043 25 238 0.0 0.0 0.00 0.00 0.00 93 1013.0
20260903235842 26 238 0.0 0.0 0.00 0.00 0.00 93 1014.5
20260903235338 26 238 0.0 0.0 0.00 0.00 0.00 93 1014.5
20260903234851 26 238 0.0 0.0 0.00 0.00 0.00 92 1014.6
20260903234543 26 238 0.0 0.0 0.00 0.00 0.00 92 1013.3
20260903234343 26 238 0.0 0.0 0.00 0.00 0.00 92 1014.7
20260903233836 26 238 0.0 0.0 0.00 0.00 0.00 92 1014.8
20260903233407 26 238 0.0 0.0 0.00 0.00 0.00 92 1014.8
20260903233040 26 238 0.0 0.0 0.00 0.00 0.00 92 1013.4
20260903232349 26 238 0.0 0.0 0.00 0.00 0.00 91 1014.9
20260903231843 27 238 0.0 0.0 0.00 0.00 0.00 91 1014.7
20260903231515 26 238 0.0 0.0 0.00 0.00 0.00 91 1013.2
20260903231415 27 238 0.0 0.0 0.00 0.00 0.00 91 1014.7
20260903230845 27 238 0.0 0.0 0.00 0.00 0.00 91 1014.5
20260903230358 27 238 0.0 0.0 0.00 0.00 0.00 90 1014.0
20260903230100 27 238 0.0 0.0 0.00 0.00 0.00 90 1012.5
20260903225844 27 238 0.0 0.0 0.00 0.00 0.00 90 1014.0
20260903225337 27 238 0.0 0.0 0.00 0.00 0.00 90 1013.9
20260903224909 27 238 0.0 0.0 0.00 0.00 0.00 89 1013.8
20260903224542 27 238 0.0 0.0 0.00 0.00 0.00 89 1012.3
20260903224342 27 238 0.0 0.0 0.00 0.00 0.00 89 1013.6
20260903223853 27 238 0.0 0.0 0.00 0.00 0.00 89 1013.8
20260903223348 27 238 0.0 0.0 0.00 0.00 0.00 88 1013.8
20260903223040 27 238 0.0 0.0 0.00 0.00 0.00 88 1012.3
20260903222839 27 238 0.0 0.0 0.00 0.00 0.00 88 1013.7
20260903222352 28 238 0.0 0.0 0.00 0.00 0.00 87 1013.8
20260903221844 28 238 0.0 0.0 0.00 0.00 0.00 86 1013.8
20260903221539 27 238 0.0 0.0 0.00 0.00 0.00 86 1012.3
20260903221338 28 238 0.0 0.0 0.00 0.00 0.00 86 1013.7
20260903220850 28 238 0.0 0.0 0.00 0.00 0.00 85 1013.4
20260903220343 28 238 0.0 0.0 0.00 0.00 0.00 85 1013.5
20260903220104 28 238 0.0 0.0 0.00 0.00 0.00 85 1012.1
20260903215853 28 238 0.0 0.0 0.00 0.00 0.00 85 1013.5
20260903215346 28 238 0.0 0.0 0.00 0.00 0.00 85 1013.3
20260903214839 28 238 0.0 1.6 0.00 0.00 0.00 85 1013.3
20260903214553 28 238 0.0 1.6 0.00 0.00 0.00 84 1011.8
20260903214353 28 238 0.0 1.6 0.00 0.00 0.00 83 1013.1
20260903213845 28 238 0.0 0.0 0.00 0.00 0.00 83 1013.3
20260903213358 29 238 0.0 4.8 0.00 0.00 0.00 80 1013.3
20260903213053 30 238 0.0 4.8 0.00 0.00 0.00 77 1011.9
20260903212849 30 238 1.6 4.8 0.00 0.00 0.00 73 1013.3
20260903212401 30 161 1.6 4.8 0.00 0.00 0.00 77 1013.3
20260903211837 30 153 1.6 6.4 0.00 0.00 0.00 72 1013.4
20260903211551 30 156 1.6 6.4 0.00 0.00 0.00 72 1012.1
20260903211351 30 208 1.6 4.8 0.00 0.00 0.00 80 1013.5
20260903210844 30 204 0.0 3.2 0.00 0.00 0.00 78 1013.6
20260903210453 31 204 0.0 8.0 0.00 0.00 0.00 72 1013.6
20260903210100 31 204 0.0 8.0 0.00 0.00 0.00 71 1012.2
20260903205855 31 204 3.2 8.0 0.00 0.00 0.00 66 1013.7
20260903205347 31 194 1.6 4.8 0.00 0.00 0.00 68 1013.9
20260903204843 31 232 0.0 8.0 0.00 0.00 0.00 72 1013.8
20260903204537 31 190 0.0 8.0 0.00 0.00 0.00 70 1012.5
20260903204337 31 221 0.0 8.0 0.00 0.00 0.00 67 1013.9
20260903203849 30 81 0.0 4.8 0.00 0.00 0.00 72 1014.0
20260903203342 31 81 0.0 4.8 0.00 0.00 0.00 68 1013.9
20260903203037 31 81 0.0 4.8 0.00 0.00 0.00 68 1012.6
20260903202836 31 134 0.0 4.8 0.00 0.00 0.00 68 1014.0
20260903202349 31 89 1.6 4.8 0.00 0.00 0.00 68 1014.0
20260903201902 31 158 1.6 6.4 0.00 0.00 0.00 67 1014.1
20260903201555 31 158 0.0 6.4 0.00 0.00 0.00 67 1012.8
20260903201354 31 194 1.6 9.7 0.00 0.00 0.00 69 1014.2
20260903200846 31 286 3.2 11.3 0.00 0.00 0.00 69 1014.3
20260903200400 31 126 1.6 8.0 0.00 0.00 0.00 72 1014.3
20260903200009 31 107 1.6 8.0 0.00 0.00 0.00 71 1013.0
20260903195908 31 154 3.2 8.0 0.00 0.00 0.00 70 1014.3
20260903195339 31 132 1.6 6.4 0.00 0.00 0.00 70 1014.4
20260903194852 31 160 1.6 6.4 0.00 0.00 0.00 70 1014.5
20260903194544 30 157 1.6 6.4 0.00 0.00 0.00 71 1013.3
20260903194345 31 142 3.2 6.4 0.00 0.00 0.00 70 1014.6
20260903193838 31 166 3.2 9.7 0.00 0.00 0.00 71 1014.6
20260903193351 30 274 0.0 9.7 0.00 0.00 0.00 71 1014.8
20260903193004 30 240 1.6 9.7 0.00 0.00 0.00 73 1013.5
20260903192904 30 165 0.0 4.8 0.00 0.00 0.00 72 1014.8
20260903192457 31 234 0.0 4.8 0.00 0.00 0.00 72 1015.0
20260903191905 30 234 1.6 8.0 0.00 0.00 0.00 70 1015.1
20260903191536 30 228 1.6 8.0 0.00 0.00 0.00 69 1013.8
20260903191336 31 250 1.6 8.0 0.00 0.00 0.00 69 1015.2
20260903190849 31 229 1.6 4.8 0.00 0.00 0.00 70 1015.3
20260903190342 31 101 1.6 9.7 0.00 0.00 0.00 71 1015.4
20260903190053 30 80 0.0 9.7 0.00 0.00 0.00 72 1014.1
20260903185852 30 80 1.6 9.7 0.00 0.00 0.00 72 1015.4
20260903185343 31 170 1.6 6.4 0.00 0.00 0.00 68 1015.5
20260903184856 31 115 3.2 6.4 0.00 0.00 0.00 69 1015.6
20260903184547 31 84 1.6 9.7 0.00 0.00 0.00 70 1014.4
20260903184346 31 84 3.2 9.7 0.00 0.00 0.00 71 1015.8
20260903183840 31 182 3.2 9.7 0.00 0.00 0.00 72 1015.8
20260903183353 30 135 3.2 6.4 0.00 0.00 0.00 76 1015.9
20260903183006 30 150 0.0 11.3 0.00 0.00 0.00 77 1014.6
20260903182905 30 150 1.6 11.3 0.00 0.00 0.00 76 1016.0
20260903182338 29 166 4.8 11.3 0.00 0.00 0.00 75 1016.1
20260903181850 29 109 1.6 8.0 0.00 0.00 0.00 77 1016.1
20260903181551 28 178 0.0 8.0 0.00 0.00 0.00 78 1014.8
20260903181342 28 344 1.6 4.8 0.00 0.00 0.00 76 1016.1
20260903180344 28 126 1.6 6.4 0.00 0.00 0.00 81 1016.2
20260903180034 27 169 1.6 9.7 0.00 0.00 0.00 83 1015.1
20260903175910 27 185 3.2 9.7 0.00 0.00 0.00 82 1016.3
20260903175345 28 218 1.6 4.8 0.00 0.00 0.00 81 1016.5
20260903174838 28 115 1.6 8.0 0.00 0.00 0.00 85 1016.6
20260903174549 27 93 1.6 8.0 0.00 0.00 0.00 86 1015.4
20260903174348 27 93 1.6 8.0 0.00 0.00 0.00 85 1016.7
20260903173936 27 31 1.6 8.0 0.00 0.00 0.00 86 1016.7
20260903173348 26 143 3.2 6.4 0.00 0.00 0.00 86 1016.9
20260903173106 26 238 0.0 6.4 0.00 0.00 0.00 85 1015.6
20260903172859 26 159 1.6 6.4 0.00 0.00 0.00 87 1016.9
20260903172351 26 243 1.6 6.4 0.00 0.00 0.00 90 1017.0
20260903171904 25 169 0.0 3.2 0.00 0.00 0.00 92 1017.4
20260903171556 24 169 0.0 3.2 0.00 0.00 0.00 91 1016.2
20260903171354 24 169 0.0 3.2 0.00 0.00 0.00 90 1017.6
20260903170343 25 46 1.6 6.4 0.00 0.00 0.00 90 1017.5
20260903170021 25 145 3.2 6.4 0.00 0.00 0.00 91 1016.4
20260903165913 25 145 3.2 6.4 0.00 0.00 0.00 91 1017.7
20260903165344 24 144 0.0 3.2 0.00 0.00 0.00 93 1017.8
20260903164857 23 237 0.0 3.2 0.00 0.00 0.00 94 1018.0
20260903164551 23 237 0.0 0.0 0.00 0.00 0.00 95 1016.8
20260903163843 23 237 0.0 0.0 0.00 0.00 0.00 95 1018.0
20260903163042 23 237 0.0 0.0 0.00 0.00 0.00 94 1017.0
20260903162352 23 237 0.0 0.0 0.00 0.00 0.00 94 1018.5
20260903161844 23 238 0.0 0.0 0.00 0.00 0.00 94 1018.4
20260903161550 23 238 0.0 0.0 0.00 0.00 0.00 94 1016.7
20260903161337 23 238 0.0 0.0 0.00 0.00 0.00 94 1018.1
20260903160850 23 238 0.0 0.0 0.00 0.00 0.00 94 1018.5
20260903160344 23 238 0.0 0.0 0.00 0.00 0.00 94 1018.6
20260903160053 23 238 0.0 0.0 0.00 0.00 0.00 94 1017.4
20260903155852 23 238 0.0 0.0 0.00 0.00 0.00 94 1018.9
20260903155344 23 238 0.0 0.0 0.00 0.00 0.00 94 1019.1
20260903154857 23 238 0.0 0.0 0.00 0.00 0.00 94 1019.1
20260903154555 22 238 0.0 0.0 0.00 0.00 0.00 94 1017.8
20260903154349 23 238 0.0 0.0 0.00 0.00 0.00 94 1019.2
20260903153841 23 238 0.0 0.0 0.00 0.00 0.00 94 1019.0
20260903153339 23 238 0.0 0.0 0.00 0.00 0.00 94 1018.8
20260903153054 22 238 0.0 0.0 0.00 0.00 0.00 94 1017.3
20260903152853 23 238 0.0 0.0 0.00 0.00 0.00 94 1018.5
20260903152407 23 238 0.0 0.0 0.00 0.00 0.00 94 1018.7
20260903151857 22 238 0.0 4.8 0.00 0.00 0.00 94 1018.9
20260903151552 22 238 0.0 4.8 0.00 0.00 0.00 94 1017.5